Dewpoint
53 53 53 54 54 54 54 55 55 55 56 56 56 57 57 57 57 57 57 57 57 57 57 58 58 58 58 58 58 58 58 56 53 46 47 35 46 58 63 67 69 69 77 67 63 61 59 58 57 58 58 62 63 63 63 59 59 53 52 52 48 46 51 49 45 43 44 42 38 42 47 48 49 53 56 58 58 58 58 60 61 63 63 64 66 66 67 67
52 52 53 54 54 54 54 55 54 55 56 55 55 56 56 57 57 57 57 57 57 57 57 57 57 58 58 57 58 58 57 56 51 48 45 43 59 60 64 66 68 70 74 63 60 55 54 56 57 57 56 56 59 59 58 53 54 50 51 49 47 45 44 48 45 44 42 43 39 45 47 48 50 53 56 55 56 57 57 58 61 61 63 65 66 66 66 67
52 52 53 53 53 53 54 54 55 55 55 55 55 56 56 57 57 57 57 57 56 57 57 57 57 58 58 57 58 58 57 52 51 34 27 60 65 63 63 65 69 73 63 51 63 56 54 55 57 56 54 54 56 56 54 51 50 49 49 48 47 46 44 45 43 42 44 44 40 43 46 48 50 53 55 55 55 56 56 58 60 61 62 63 65 66 65 66
52 52 53 53 53 54 54 55 55 55 55 55 55 55 55 56 56 56 57 57 57 57 56 56 57 57 57 58 58 57 55 54 27 27 35 65 73 69 64 65 71 72 61 47 59 61 56 55 56 55 53 53 54 55 53 51 48 48 48 46 47 47 44 44 44 45 44 45 39 40 38 45 47 50 51 54 54 54 56 59 60 61 62 63 64 65 65 65
52 52 53 53 53 54 54 55 54 55 55 55 55 55 56 56 56 56 56 56 56 56 56 56 57 58 57 57 57 57 54 13 9 36 41 71 74 70 66 67 73 68 58 50 53 57 57 53 53 54 53 52 53 53 53 51 49 48 47 47 47 46 43 44 44 43 42 44 43 36 37 42 42 45 49 52 51 51 55 59 61 62 63 63 63 64 64 65
52 52 52 53 53 54 54 54 55 55 55 55 55 55 55 56 56 56 56 56 56 56 56 57 57 57 57 57 57 56 28 5 23 25 70 71 72 69 67 68 73 65 56 50 47 44 43 44 51 51 51 51 52 52 51 51 49 44 44 46 46 46 43 44 44 43 43 44 40 35 35 36 39 40 48 50 50 52 57 60 61 62 63 63 63 63 64 65
52 52 52 53 53 54 54 54 55 55 55 55 55 55 55 55 55 55 55 56 56 56 56 57 57 57 57 58 57 55 39 9 25 18 67 73 71 70 69 70 77 63 56 49 46 42 40 39 41 48 50 50 50 50 51 47 46 44 40 41 44 45 43 40 44 44 44 43 41 41 36 35 36 37 44 47 50 57 60 61 62 62 63 63 63 63 64 65
52 52 52 53 53 54 54 54 54 54 54 54 55 55 55 55 55 55 55 55 55 56 57 57 57 57 58 57 53 46 44 35 29 24 60 72 71 73 72 69 64 57 53 46 45 44 42 38 38 40 44 47 48 48 47 43 39 35 34 34 39 42 42 39 43 43 43 42 41 37 34 34 34 37 42 50 57 59 60 61 61 62 62 63 63 63 64 65
52 52 52 53 53 54 54 54 54 54 54 54 55 55 55 55 55 55 55 55 56 55 56 56 57 57 58 57 47 31 22 29 21 29 41 66 65 67 60 58 59 51 48 45 43 42 42 39 40 40 40 42 43 38 39 38 35 35 34 33 34 39 40 39 39 42 42 42 42 35 36 37 36 43 44 55 58 60 60 60 61 61 61 62 62 63 64 65
52 52 53 53 53 54 54 54 54 54 54 55 54 54 54 54 54 55 55 55 55 56 56 56 57 57 57 55 52 19 16 24 25 21 37 56 63 61 52 49 56 50 47 46 45 43 40 38 41 43 43 42 39 37 37 32 31 33 32 32 30 30 39 39 37 41 42 42 42 38 39 37 49 52 53 56 58 59 60 60 60 60 61 61 62 62 63 64
52 53 53 53 53 53 53 53 54 54 54 54 54 54 54 54 54 55 55 55 55 55 56 57 57 58 56 54 39 26 29 27 35 46 39 56 58 52 48 50 51 50 47 46 45 45 42 40 44 45 41 39 33 33 32 29 28 26 27 28 27 26 25 37 37 38 40 42 42 41 37 39 44 52 54 56 58 59 59 59 60 60 60 61 61 62 63 64
52 52 53 53 53 53 54 53 54 54 54 54 54 54 54 54 54 54 54 54 55 56 56 57 57 57 56 54 47 22 27 33 32 24 47 52 50 44 43 49 47 45 43 39 43 45 44 43 43 44 37 33 33 34 32 28 25 25 26 25 26 25 22 28 36 36 39 42 43 38 36 36 45 51 55 57 58 59 59 59 59 60 60 61 61 62 63 63
52 52 52 53 53 53 54 54 53 54 54 53 53 54 54 54 53 53 54 54 55 55 56 57 59 58 56 42 42 39 33 29 25 26 26 43 47 44 41 48 45 43 41 37 36 40 43 43 43 41 41 39 34 27 25 21 21 19 22 24 22 21 20 21 33 35 34 42 42 38 35 36 42 53 56 58 58 58 58 58 59 59 60 60 61 61 63 63
52 52 52 52 53 53 54 53 53 53 53 53 53 53 53 52 53 54 54 54 56 57 58 58 57 57 53 38 41 44 44 40 37 37 30 27 35 43 43 44 45 41 40 35 33 33 37 39 40 40 40 35 30 21 22 19 18 15 17 20 19 18 20 23 27 31 31 40 39 38 36 38 46 53 56 58 58 58 58 58 59 59 59 60 61 61 62 63
53 52 52 53 53 53 53 53 53 53 53 53 53 52 52 52 53 54 55 56 56 57 58 59 58 56 50 41 49 50 63 53 42 35 34 29 27 34 40 41 39 40 37 35 33 31 32 35 36 34 31 31 29 25 21 17 18 17 14 14 18 18 20 20 24 26 26 39 40 39 40 38 46 52 56 57 58 58 58 58 58 59 59 59 60 61 61 62
52 52 52 52 52 53 53 53 53 53 53 52 51 51 53 53 54 55 57 56 56 58 59 56 55 56 47 32 36 54 40 53 50 48 41 30 29 30 36 38 36 34 35 35 35 34 33 34 31 30 29 28 23 16 15 15 15 19 14 17 15 18 18 19 20 26 32 38 40 37 37 39 46 51 54 57 57 57 57 58 58 58 58 58 60 60 61 61
52 52 52 52 53 53 53 52 52 53 52 52 51 51 52 54 56 58 57 58 56 58 58 54 56 57 40 39 43 35 34 38 48 47 45 36 28 28 29 34 31 27 26 26 26 27 27 27 31 32 27 25 21 16 16 15 15 17 19 18 16 15 18 19 21 25 31 37 37 41 39 39 43 48 52 55 56 56 56 56 57 57 57 58 59 60 60 60
52 52 52 52 53 53 53 52 52 52 51 51 50 51 50 54 57 58 57 57 56 57 57 57 54 49 37 44 34 30 36 34 44 42 42 40 34 31 29 28 27 26 25 24 26 24 26 24 27 26 24 21 18 16 15 13 13 15 19 19 16 18 17 18 18 27 30 35 37 39 39 39 39 44 50 53 54 54 54 55 56 57 56 57 59 59 59 59
52 52 52 52 52 53 53 52 52 51 51 50 51 52 55 55 54 51 50 51 53 49 41 48 44 20 12 40 43 41 41 39 36 38 38 38 36 34 31 29 25 24 23 22 24 22 26 23 30 27 23 22 18 16 14 14 16 14 15 16 17 16 16 16 18 21 30 34 38 38 38 39 35 42 48 51 52 52 53 54 55 55 55 56 58 59 59 58
52 52 52 52 52 53 53 52 52 51 50 49 47 48 48 34 38 44 49 50 50 33 36 42 43 31 31 30 31 34 37 41 39 36 35 35 30 29 27 26 24 22 20 20 23 21 24 21 21 21 23 23 21 17 15 14 15 16 16 16 16 16 16 17 18 23 29 32 37 38 38 38 35 39 45 48 49 50 52 52 52 53 54 55 57 58 58 57
52 52 52 52 52 52 52 52 51 50 50 49 48 43 31 34 23 20 22 23 29 36 36 34 41 40 34 35 37 37 40 40 42 39 33 36 28 25 24 24 23 20 19 20 21 27 23 22 21 22 23 23 22 20 16 15 15 14 14 15 16 16 16 17 18 25 30 28 33 37 38 39 36 37 40 46 47 48 50 49 51 52 52 53 56 57 57 56
52 52 52 52 52 52 52 51 51 50 50 48 47 31 34 32 27 24 24 20 23 25 28 32 33 33 38 38 37 37 37 36 36 35 36 31 26 24 24 23 22 20 22 23 22 23 22 21 21 22 23 23 22 20 18 16 14 14 13 14 15 16 17 18 19 19 27 28 31 34 36 38 39 37 38 43 44 45 48 47 50 51 51 52 55 56 56 56
52 52 52 53 52 51 51 51 49 50 48 40 39 37 31 31 33 31 28 23 19 20 20 21 22 24 25 27 31 34 33 32 31 33 33 28 25 25 22 23 21 20 24 24 21 22 21 21 22 22 22 21 21 21 19 16 16 15 13 13 13 15 17 16 18 22 26 28 30 34 34 36 39 40 39 40 42 42 45 45 48 50 50 50 52 54 55 55
52 52 52 52 52 51 51 49 49 44 40 42 42 37 33 34 34 33 29 23 19 19 19 19 20 20 20 19 19 22 25 26 28 28 32 28 23 23 21 22 20 21 22 24 23 22 21 22 22 22 21 21 20 19 19 17 14 15 14 13 12 13 14 16 17 20 26 29 33 33 36 40 39 39 40 40 42 41 42 44 45 48 50 49 51 53 54 54
52 53 53 52 51 51 49 49 41 41 44 41 40 31 33 33 32 34 29 24 23 22 22 19 20 20 19 21 17 16 17 18 22 26 29 28 23 21 20 21 21 19 22 25 24 23 22 21 21 21 20 20 19 18 17 16 14 12 14 14 13 13 13 15 17 16 24 25 32 32 33 34 38 39 40 41 42 41 42 42 43 46 48 48 49 51 53 54
52 53 53 52 52 51 48 37 38 44 43 39 31 34 34 31 32 35 29 25 20 22 22 17 19 15 18 14 12 12 13 10 13 19 24 27 29 22 22 19 21 19 21 23 23 24 23 22 20 20 20 19 18 17 16 15 13 11 11 13 13 13 13 14 15 18 32 28 31 32 30 32 39 39 41 41 42 42 43 42 42 45 47 46 47 50 52 53
53 53 52 52 51 50 43 37 42 44 36 30 32 38 33 32 34 32 24 23 23 25 18 27 15 14 17 13 10 9 2 4 10 13 19 28 26 23 19 18 20 22 23 25 26 20 21 20 20 19 19 18 17 15 15 13 12 11 11 12 13 13 13 14 15 15 26 34 31 32 32 32 33 36 41 41 42 43 44 43 43 43 46 46 46 48 52 53
53 52 52 51 50 50 46 46 45 42 40 36 39 35 33 34 37 30 26 25 24 27 18 16 15 19 22 11 9 5 7 12 7 9 14 19 28 22 20 17 17 17 20 21 18 22 20 19 19 18 17 16 16 15 14 13 11 11 11 9 11 12 12 13 14 15 17 18 23 32 32 34 34 35 40 42 42 43 44 44 45 45 45 46 46 46 50 53
52 52 52 51 50 49 48 47 44 42 41 38 37 35 35 39 37 27 27 21 26 24 23 16 25 12 12 10 8 6 12 13 11 8 13 18 23 24 21 19 17 16 17 19 18 20 19 19 19 19 17 14 14 14 13 12 10 10 8 8 7 9 12 13 13 14 18 20 21 29 30 29 32 40 40 42 41 42 43 44 44 46 46 46 46 46 48 51
52 52 51 51 48 44 44 44 43 41 40 40 38 40 43 41 30 28 25 19 27 17 20 22 19 14 8 7 7 6 6 11 14 14 12 15 21 22 21 22 17 16 16 17 17 19 20 29 26 18 17 15 12 11 12 11 10 10 5 4 5 5 8 15 21 21 21 17 18 24 26 28 28 37 39 41 40 41 42 44 45 45 48 47 46 47 47 49
51 51 50 50 46 44 45 41 38 42 42 40 43 44 42 32 27 22 17 19 19 17 24 23 21 10 7 6 5 6 6 7 10 12 11 14 17 20 17 18 19 17 16 16 16 16 18 19 20 20 18 15 12 9 9 10 9 8 4 4 5 7 13 16 24 28 19 16 27 24 24 27 26 33 38 41 42 42 42 43 44 44 46 48 48 47 47 48
50 49 50 48 47 48 45 37 34 39 42 44 45 43 32 20 21 18 17 21 17 21 19 17 22 10 7 7 7 6 4 5 8 10 10 12 13 15 13 14 16 14 14 14 13 17 16 17 18 19 28 15 12 10 7 7 7 6 5 9 4 10 9 5 10 9 17 15 25 26 27 27 28 34 36 39 41 42 42 43 43 44 44 47 49 48 48 49
49 49 49 48 48 47 47 45 45 45 45 45 45 39 27 22 14 13 14 16 20 19 15 18 14 13 15 10 6 6 6 3 4 7 10 11 12 13 13 12 15 15 13 14 13 14 15 18 17 17 18 22 14 8 8 5 6 4 4 10 6 4 6 9 14 20 23 26 27 24 30 28 33 31 37 37 40 41 42 43 43 44 44 47 49 49 49 49
49 49 46 45 45 44 44 46 46 46 45 47 43 36 28 22 21 26 13 14 14 15 15 15 17 14 13 14 10 6 4 5 6 6 9 9 9 9 10 11 14 13 16 17 12 12 13 14 15 16 15 17 16 10 7 6 6 5 3 4 7 6 8 8 10 8 10 19 23 21 21 26 25 28 33 37 39 40 41 42 43 44 44 47 48 49 50 50
48 47 44 44 44 44 45 45 46 46 46 43 35 32 19 17 19 22 19 13 13 14 17 21 18 13 11 12 14 11 6 5 6 6 8 8 7 7 8 8 11 15 15 14 18 18 12 14 20 18 17 17 15 16 8 6 5 5 3 7 9 4 27 9 19 18 23 20 18 22 23 26 21 35 35 35 37 39 40 42 44 44 44 46 48 49 49 51
46 44 45 43 44 42 43 43 46 45 44 41 34 30 23 21 17 17 18 19 20 23 22 21 17 12 11 11 16 14 11 10 8 9 8 9 8 7 8 8 8 12 14 12 18 12 15 12 14 18 18 16 15 17 13 6 5 7 4 2 2 14 6 17 32 28 27 25 14 32 27 27 32 28 36 37 36 38 39 40 42 44 44 46 48 49 48 50
45 45 41 41 43 44 41 35 43 45 43 39 33 26 26 24 24 23 28 27 27 24 22 19 20 17 15 11 12 13 16 12 14 9 11 12 10 8 8 8 8 9 14 14 16 17 14 15 16 15 15 18 17 16 15 11 13 7 2 4 9 12 13 11 7 18 8 11 20 16 14 23 24 23 37 31 35 36 39 40 41 44 45 45 47 48 48 49
45 44 44 43 45 40 35 35 39 44 41 37 33 36 34 32 33 31 30 27 26 24 22 21 20 20 17 14 11 12 12 11 17 12 11 12 12 12 9 9 9 8 11 15 14 18 15 13 13 15 15 17 19 17 15 15 10 2 2 7 1 9 4 16 17 6 7 7 12 19 21 25 26 28 31 24 27 34 37 39 39 43 44 45 45 47 48 48
45 41 36 34 36 36 35 36 35 43 39 35 33 34 33 32 32 30 29 29 29 26 24 21 19 20 17 16 15 16 15 11 12 12 15 15 12 15 12 12 12 9 10 14 14 22 17 11 14 15 15 15 17 17 15 14 15 12 8 4 5 8 3 10 11 20 15 19 15 11 19 17 30 29 32 23 23 32 36 37 38 40 43 44 45 45 47 48
40 38 35 38 36 36 37 37 34 40 38 35 34 33 34 33 33 34 33 32 29 26 25 23 23 22 22 21 21 19 18 16 13 11 10 16 13 18 15 15 15 11 11 13 13 15 14 16 12 15 15 14 13 16 14 14 13 13 10 7 13 12 15 4 14 4 14 20 17 17 12 22 31 36 29 26 26 32 36 37 39 38 41 43 44 45 46 47
42 39 35 37 35 37 37 34 31 35 36 36 35 34 35 33 34 32 30 30 28 28 25 24 24 23 24 23 23 23 20 18 15 13 10 8 9 17 19 17 17 13 13 13 12 14 14 16 12 14 12 13 12 15 14 14 14 13 12 11 7 5 10 3 7 17 15 14 16 15 10 29 36 33 35 29 27 31 37 37 38 38 39 42 43 44 46 47
40 33 31 34 36 37 35 31 31 31 28 32 35 35 34 38 32 31 29 29 28 26 24 22 22 22 24 24 24 23 23 21 19 15 12 9 7 8 14 21 18 17 14 14 13 14 15 23 14 13 12 11 13 14 15 14 14 14 12 11 8 8 12 12 7 21 15 7 11 25 16 18 32 37 35 34 33 32 35 37 37 38 39 41 43 44 46 48
36 34 36 38 38 36 34 32 33 34 29 28 28 29 32 32 31 29 27 26 20 19 21 21 21 19 19 21 23 23 22 21 21 19 17 15 12 11 12 32 31 27 16 16 15 16 46 17 16 16 18 14 15 15 16 16 14 13 12 11 8 6 6 6 13 26 11 20 9 11 16 17 28 32 24 30 37 34 32 35 37 38 39 41 43 45 47 48
37 37 36 38 38 36 34 31 31 29 29 29 28 29 29 28 29 25 20 20 20 18 19 20 20 25 28 29 28 28 29 25 26 26 21 22 18 26 28 32 31 28 24 22 17 20 19 18 20 15 15 14 12 15 16 18 14 12 11 10 10 9 7 9 13 31 14 17 9 9 6 11 33 34 23 26 34 29 37 35 37 38 42 41 44 46 48 49
40 38 38 37 37 33 31 31 29 29 31 30 30 29 28 28 29 28 27 26 27 27 27 25 24 27 28 28 28 27 28 30 30 30 30 29 29 32 30 30 31 30 30 43 50 37 17 19 20 13 14 13 12 11 11 13 13 12 12 10 10 8 8 10 6 18 12 28 24 16 13 27 34 36 17 10 10 15 27 38 37 38 40 40 43 46 49 50
35 31 32 32 32 33 35 31 30 31 30 30 30 29 28 27 27 28 28 26 26 26 26 25 25 28 27 27 27 27 27 29 28 29 30 27 28 29 29 30 32 30 46 49 47 36 25 21 21 18 14 15 17 24 28 33 15 12 11 10 9 9 9 9 17 14 10 25 21 27 28 30 25 24 23 14 12 11 16 24 40 38 38 41 43 46 48 50
40 33 31 30 33 32 30 31 32 31 28 30 29 29 27 27 26 26 28 25 26 26 25 25 26 27 27 27 27 26 27 27 27 30 27 26 27 27 28 31 31 40 49 42 43 34 34 25 17 25 21 17 15 17 21 20 12 12 11 10 9 9 10 9 11 10 27 16 14 25 40 23 28 32 29 21 14 15 30 34 36 41 41 39 44 48 55 49
34 34 33 34 32 30 31 31 33 32 32 31 30 29 28 26 26 26 27 27 27 26 23 26 25 28 28 28 28 26 27 27 28 27 27 27 26 26 27 30 30 41 39 32 35 32 35 29 25 18 16 16 14 12 13 21 16 12 11 10 9 10 10 9 14 16 21 12 12 21 36 29 30 36 32 29 26 32 29 32 36 38 39 39 42 43 47 48
37 36 34 35 34 34 35 34 34 32 30 30 32 30 27 26 27 28 28 28 28 27 27 23 23 24 28 29 30 29 30 26 26 28 29 26 26 26 28 28 32 31 31 31 32 34 32 30 32 22 16 15 16 14 13 13 20 19 12 11 10 9 9 10 10 14 12 23 21 23 31 25 25 25 23 25 34 39 40 47 47 44 50 50 45 44 46 48
35 35 35 37 36 35 34 34 33 31 30 32 28 27 27 27 28 28 28 27 27 28 28 26 26 27 27 29 32 28 28 28 27 26 28 27 26 31 27 28 29 29 30 30 31 34 32 31 40 29 22 15 15 17 14 13 17 18 18 14 12 11 9 9 9 12 19 15 25 15 23 26 26 26 18 19 28 45 33 30 41 45 49 53 49 49 49 49
39 43 41 37 34 34 36 33 32 32 30 30 28 29 30 33 30 32 31 27 28 27 30 28 28 28 29 28 30 30 30 30 29 27 27 27 26 27 26 27 27 27 29 30 32 33 33 33 32 31 25 17 15 15 15 14 14 15 16 16 15 13 12 10 12 14 20 27 27 27 27 24 30 35 34 28 26 30 28 37 45 48 47 54 53 51 50 50
45 47 43 41 33 36 34 32 31 31 29 29 29 30 32 31 30 32 30 29 30 31 32 30 30 28 29 31 30 28 30 31 30 28 28 28 28 28 28 28 28 28 29 30 31 31 34 32 30 30 28 27 17 15 14 14 14 13 14 13 16 18 18 15 15 20 18 16 18 20 17 27 26 33 29 25 23 29 31 35 44 51 55 53 53 53 52 53